Location: Larkspur
(54.4391°N, 113.7691°W)
Time: 20:49:45
(UTC+00:00)

METEOR M2 - Pass Details

Date: 07 December 2023
Orbit: 819 x 826 km, 98.4° (Epoch: 04 March)

Event Time Altitude Azimuth Distance (km) Brightness Sun altitude
Rises 14:22:16 0° 13° (NNE) 3,375 ? -10.6°
Reaches altitude 10° 14:24:40 10° 9° (N) 2,437 ? -10.3°
Maximum altitude 14:29:54 54° 294° (WNW) 996 ? -9.6°
Drops below altitude 10° 14:35:06 10° 218° (SW) 2,417 ? -8.9°
Sets 14:37:28 0° 214° (SW) 3,344 ? -8.6°
